Waarnemingen

Advertentie
Mijn weer
Arjeplog, Zweden (2124): temperatuur & dauwpunt: 19.02.2018 00:00:00 - 25.02.2018 00:00:00 (CET)Arjeplog, Zweden (2124): windsnelheid & windstoten: 19.02.2018 00:00:00 - 25.02.2018 00:00:00 (CET)Arjeplog, Zweden (2124): windrichting: 19.02.2018 00:00:00 - 25.02.2018 00:00:00 (CET)Arjeplog, Zweden (2124): luchtdruk: 19.02.2018 00:00:00 - 25.02.2018 00:00:00 (CET)Arjeplog, Zweden (2124): zicht: 19.02.2018 00:00:00 - 25.02.2018 00:00:00 (CET)Arjeplog, Zweden (2124): neerslag: 19.02.2018 00:00:00 - 25.02.2018 00:00:00 (CET)
Datum & Tijd tt [°C] td [°C] ff [km/u] ff [kn] fx [km/u] fx [kn] dd ppp [hPa] vv [km] rr [mm]
25.02.2018 00:00:00 -24,2 -26,4 3 2 6 3 O 1048,8 2,1 0,0
24.02.2018 23:00:00 -24,1 -26,3 0 0 6 4 N 1048,4 19 0,0
24.02.2018 22:00:00 -22,9 -24,9 3 2 6 3 O 1048,2 20 0,0
24.02.2018 21:00:00 -22,3 -24,5 3 1 5 3 NO 1047,8 4,2 0,0
24.02.2018 20:00:00 -22,6 -24,6 0 0 5 3 N 1047,5 12 0,0
24.02.2018 19:00:00 -22,1 -24,2 3 2 8 4 NO 1046,8 13 0,0
24.02.2018 18:00:00 -20,4 -22,1 4 2 7 4 ONO 1046,1 16 0,0
24.02.2018 17:00:00 -19,0 -20,9 5 3 7 4 ONO 1045,5 9 0,0
24.02.2018 16:00:00 -14,9 -17,7 4 2 11 6 ONO 1044,9 21 0,0
24.02.2018 15:00:00 -13,8 -17,0 6 3 11 6 NO 1044,4 22 0,0
24.02.2018 14:00:00 -13,7 -16,9 4 2 10 5 NO 1044,1 26 0,0
24.02.2018 13:00:00 -14,4 -17,4 7 4 14 8 ONO 1043,8 16 0,0
24.02.2018 12:00:00 -14,6 -17,3 8 4 14 8 ONO 1043,7 11 0,0
24.02.2018 11:00:00 -15,3 -18,0 7 4 11 6 ONO 1043,5 10 0,0
24.02.2018 10:00:00 -15,3 -17,7 5 3 8 5 ONO 1042,9 11 0,2
24.02.2018 09:00:00 -15,8 -18,0 4 2 11 6 ONO 1042,3 10 0,0
24.02.2018 08:00:00 -16,7 -18,8 7 4 11 6 ONO 1041,9 10 0,0
24.02.2018 07:00:00 -14,8 -16,8 5 3 13 7 O 1041,0 2,3 0,1
24.02.2018 06:00:00 -14,5 -16,5 5 3 13 7 OZO 1040,3 1,8 0,3
24.02.2018 05:00:00 -14,2 -16,3 6 4 14 8 ZO 1039,6 2,8 0,1
24.02.2018 04:00:00 -14,1 -16,1 5 3 16 9 ZO 1039,3 1,8 0,3
24.02.2018 03:00:00 -13,7 -15,7 7 4 16 9 ZO 1038,8 1,9 0,3
24.02.2018 02:00:00 -13,3 -15,3 5 3 14 8 ZO 1038,7 2,3 0,0
24.02.2018 01:00:00 -13,1 -14,9 8 4 14 8 ZZO 1038,5 2,3 0,3
24.02.2018 00:00:00 -13,1 -14,9 3 2 7 4 ZZO 1038,4 1,2 0,0
23.02.2018 23:00:00 -13,3 -15,0 3 2 10 5 OZO 1038,2 2,4 0,0
23.02.2018 22:00:00 -13,3 -15,1 5 3 15 8 ZZO 1038,1 23 0,0
23.02.2018 21:00:00 -13,1 -14,9 6 3 12 6 ZZO 1037,6 18 0,0
23.02.2018 20:00:00 -13,1 -15,1 5 3 11 6 ZO 1037,2 17 0,0
23.02.2018 19:00:00 -13,1 -15,1 6 3 16 9 ZO 1037,0 13 0,0
23.02.2018 18:00:00 -12,9 -15,0 5 3 11 6 OZO 1036,6 6 0,0
23.02.2018 17:00:00 -12,5 -14,9 5 3 14 8 OZO 1036,3 9 0,0
23.02.2018 16:00:00 -11,7 -14,1 6 3 14 7 ZO 1035,8 4,2 0,0
23.02.2018 15:00:00 -11,2 -13,8 4 2 10 5 ZZO 1035,3 7 0,0
23.02.2018 14:00:00 -11,0 -13,9 4 2 9 5 O 1035,0 8 0,0
23.02.2018 13:00:00 -11,0 -14,4 2 1 5 3 OZO 1034,9 7 0,0
23.02.2018 12:00:00 -11,4 -14,8 0 0 5 3 N 1035,0 5 0,0
23.02.2018 11:00:00 -13,8 -16,4 2 1 4 2 ONO 1034,9 9 0,0
23.02.2018 10:00:00 -15,3 -17,8 0 0 7 4 N 1034,5 7 0,0
23.02.2018 09:00:00 -16,2 -18,3 0 0 3 2 N 1034,1 8 0,0
23.02.2018 08:00:00 -17,8 -19,8 0 0 6 3 N 1033,7 22 0,0
23.02.2018 07:00:00 -18,9 -21,1 0 0 7 4 N 1033,4 17 0,0
23.02.2018 06:00:00 -18,8 -21,0 0 0 6 4 N 1032,9 23 0,1
23.02.2018 05:00:00 -19,9 -21,9 3 2 6 4 ZW 1032,6 23 0,0
23.02.2018 04:00:00 -19,8 -21,9 3 2 7 4 OZO 1032,4 31 0,0
23.02.2018 03:00:00 -22,1 -24,2 2 1 6 4 OZO 1032,4 20 0,0
23.02.2018 02:00:00 -25,6 -28,3 0 0 4 2 N 1032,8 23 0,0
23.02.2018 01:00:00 -24,9 -27,5 2 1 5 3 O 1032,5 14 0,0
23.02.2018 00:00:00 -27,6 -30,3 3 1 4 2 O 1032,6 22 0,0
22.02.2018 23:00:00 -27,6 -30,4 0 0 7 4 N 1032,3 26 0,0
22.02.2018 22:00:00 -27,7 -30,3 3 1 9 5 OZO 1032,1 19 0,0
22.02.2018 21:00:00 -27,5 -30,3 3 2 5 3 O 1031,7 14 0,0
22.02.2018 20:00:00 -27,2 -29,9 3 1 5 3 OZO 1031,4 16 0,0
22.02.2018 19:00:00 -26,5 -29,0 2 1 7 4 OZO 1031,1 14 0,0
22.02.2018 18:00:00 -26,4 -28,9 0 0 3 2 N 1030,8 16 0,0
22.02.2018 17:00:00 -26,2 -28,8 2 1 8 4 O 1030,4 6 0,0
22.02.2018 16:00:00 -24,6 -28,2 0 0 5 3 N 1030,0 16 0,0
22.02.2018 15:00:00 -23,7 -27,0 0 0 6 3 N 1029,9 22 0,0
22.02.2018 14:00:00 -23,9 -26,9 0 0 5 3 N 1030,1 23 0,0
22.02.2018 13:00:00 -25,0 -27,9 0 0 6 3 N 1030,2 26 0,0
22.02.2018 12:00:00 -27,1 -30,0 3 2 6 3 O 1030,5 20 0,0
22.02.2018 11:00:00 -27,7 -30,6 0 0 4 2 N 1030,6 20 0,0
22.02.2018 10:00:00 -30,1 -33,0 3 2 5 3 ONO 1031,0 24 0,0
22.02.2018 09:00:00 -31,6 -34,3 2 1 5 3 O 1031,3 16 0,0
22.02.2018 08:00:00 -32,9 -35,8 0 0 5 3 N 1031,4 2,2 0,0
22.02.2018 07:00:00 -33,4 -36,4 3 2 5 3 O 1031,3 17 0,0
22.02.2018 06:00:00 -31,9 -34,8 0 0 3 2 N 1031,1 11 0,0
22.02.2018 05:00:00 -32,3 -35,4 0 0 6 3 N 1031,0 17 0,0
22.02.2018 04:00:00 -31,3 -34,3 2 1 3 2 O 1031,1 18 0,0
22.02.2018 03:00:00 -31,3 -34,3 0 0 4 2 N 1030,7 15 0,0
22.02.2018 02:00:00 -30,5 -33,5 3 2 5 3 O 1030,6 19 0,0
22.02.2018 01:00:00 -29,7 -32,4 2 1 5 3 ZO 1030,5 18 0,0
22.02.2018 00:00:00 -29,0 -31,9 0 0 4 2 N 1030,6 19 0,0
21.02.2018 23:00:00 -28,2 -31,0 3 2 5 3 O 1030,4 7 0,0
21.02.2018 22:00:00 -27,4 -30,2 3 1 4 2 OZO 1030,0 11 0,0
21.02.2018 21:00:00 -27,1 -29,5 2 1 5 3 O 1029,8 16 0,0
21.02.2018 20:00:00 -26,5 -28,8 4 2 5 3 O 1029,3 15 0,0
21.02.2018 19:00:00 -25,8 -28,4 2 1 4 2 OZO 1028,8 10 0,0
21.02.2018 18:00:00 -24,5 -27,0 0 0 4 2 N 1028,2 8 0,0
21.02.2018 17:00:00 -22,8 -25,3 3 2 4 2 O 1027,8 0,7 0,0
21.02.2018 16:00:00 -20,1 -23,4 0 0 3 1 N 1027,5 1,9 0,0
21.02.2018 15:00:00 -18,8 -21,8 0 0 3 2 N 1027,5 10 0,0
21.02.2018 14:00:00 -19,6 -21,9 2 1 5 3 NO 1028,1 14 0,0
21.02.2018 13:00:00 -20,0 -22,6 0 0 3 2 N 1028,5 5 0,0
21.02.2018 12:00:00 -21,8 -24,0 2 1 3 2 ONO 1028,9 21 0,0
21.02.2018 11:00:00 -23,0 -25,5 0 0 2 1 N 1029,0 12 0,0
21.02.2018 10:00:00 -23,7 -25,9 0 0 3 2 N 1029,1 8 0,0
21.02.2018 09:00:00 -25,7 -28,4 2 1 3 2 O 1029,5 10 0,0
21.02.2018 08:00:00 -25,2 -27,6 2 1 3 2 O 1029,4 8 0,1
21.02.2018 07:00:00 -25,4 -27,8 0 0 4 2 N 1029,3 - 0,0
21.02.2018 06:00:00 -24,4 -26,9 3 1 3 2 O 1029,6 8 0,0
21.02.2018 05:00:00 -23,0 -25,5 0 0 3 2 N 1029,5 2,6 0,0
21.02.2018 04:00:00 -21,5 -23,7 0 0 3 1 N 1029,6 3,9 0,0
21.02.2018 03:00:00 -21,1 -23,4 0 0 2 1 N 1029,7 4,6 0,1
21.02.2018 02:00:00 -20,0 -22,1 2 1 4 2 ONO 1029,8 2,9 0,0
21.02.2018 01:00:00 -18,4 -20,4 2 1 4 2 NO 1029,8 2,2 0,0
21.02.2018 00:00:00 -16,1 -17,9 3 1 4 2 ONO 1029,8 2,1 0,0
20.02.2018 23:00:00 -14,8 -16,5 3 2 5 3 NO 1029,8 4,0 0,0
20.02.2018 22:00:00 -14,6 -16,4 2 1 4 2 NO 1029,8 5 0,1
20.02.2018 21:00:00 -14,5 -16,3 3 2 6 3 ONO 1029,8 7 0,0
20.02.2018 20:00:00 -13,6 -15,3 2 1 5 3 NO 1029,7 4,8 0,0
20.02.2018 19:00:00 -13,3 -15,0 2 1 4 2 NO 1029,7 6 0,0
20.02.2018 18:00:00 -13,0 -14,7 2 1 5 3 ONO 1029,7 4,6 0,0
20.02.2018 17:00:00 -12,5 -14,2 3 1 5 3 NO 1029,5 4,5 0,0
20.02.2018 16:00:00 -11,8 -13,5 2 1 6 3 NO 1029,6 3,5 0,0
20.02.2018 15:00:00 -11,7 -13,6 3 1 4 2 NO 1029,7 3,4 0,1
20.02.2018 14:00:00 -11,6 -13,6 0 0 4 2 N 1029,7 2,1 0,0
20.02.2018 13:00:00 -12,3 -14,3 2 1 5 3 ONO 1029,9 3,1 0,1
20.02.2018 12:00:00 -12,6 -14,5 3 2 6 3 NO 1029,9 3,7 0,0
20.02.2018 11:00:00 -12,7 -14,6 0 0 4 2 N 1029,9 2,0 0,1
20.02.2018 10:00:00 -13,2 -14,9 0 0 4 2 N 1030,0 1,8 0,1
20.02.2018 09:00:00 -13,6 -15,3 0 0 3 2 N 1030,0 3,6 0,0
20.02.2018 08:00:00 -14,0 -15,6 0 0 3 2 N 1029,9 1,9 0,0
20.02.2018 07:00:00 -14,7 -16,4 0 0 5 3 N 1029,8 4,6 0,0
20.02.2018 06:00:00 -15,3 -17,0 0 0 4 2 N 1029,9 3,5 0,0
20.02.2018 05:00:00 -15,7 -17,5 2 1 5 3 O 1030,2 9 0,0
20.02.2018 04:00:00 -15,9 -17,7 3 2 5 3 NO 1030,5 6 0,1
20.02.2018 03:00:00 -16,3 -18,1 0 0 4 2 N 1031,2 3,8 0,0
20.02.2018 02:00:00 -16,8 -18,6 0 0 4 2 N 1031,7 3,6 0,0
20.02.2018 01:00:00 -17,5 -19,4 0 0 5 3 N 1032,0 3,5 0,1
20.02.2018 00:00:00 -18,4 -20,4 0 0 4 2 N 1032,3 5 0,0
19.02.2018 23:00:00 -19,0 -20,9 0 0 4 2 N 1032,5 1,7 0,2
19.02.2018 22:00:00 -18,9 -20,8 0 0 4 2 N 1032,6 2,1 0,0
19.02.2018 21:00:00 -18,8 -20,3 0 0 4 2 N 1032,5 2,7 0,0
19.02.2018 20:00:00 -19,1 -21,0 0 0 4 2 N 1032,8 16 0,0
19.02.2018 19:00:00 -17,9 -19,4 3 1 7 4 ONO 1032,4 15 0,0
19.02.2018 18:00:00 -17,3 -18,9 4 2 7 4 ONO 1032,6 7 0,0
19.02.2018 17:00:00 -15,4 -17,1 5 3 7 4 O 1032,6 10 0,0
19.02.2018 16:00:00 -11,9 -14,1 2 1 6 4 O 1032,0 5 0,0
19.02.2018 15:00:00 -10,2 -12,7 3 1 9 5 ONO 1031,5 6 0,0
19.02.2018 14:00:00 -9,6 -12,2 6 3 10 5 O 1031,2 4,6 0,0
19.02.2018 13:00:00 -9,1 -11,8 5 3 10 6 ONO 1031,1 3,8 0,0
19.02.2018 12:00:00 -9,1 -11,2 6 3 10 5 ONO 1031,0 3,8 0,0
19.02.2018 11:00:00 -8,9 -11,3 5 3 10 5 ONO 1030,5 3,9 0,2
19.02.2018 10:00:00 -9,0 -11,1 6 3 11 6 O 1030,1 5 0,0
19.02.2018 09:00:00 -9,1 -10,7 6 3 12 7 O 1029,4 8 0,0
19.02.2018 08:00:00 -8,9 -10,2 5 3 14 7 ONO 1028,9 10 0,0
19.02.2018 07:00:00 -8,8 -10,1 6 3 13 7 ONO 1028,2 12 0,0
19.02.2018 06:00:00 -8,5 -9,8 7 4 15 8 ONO 1027,8 11 0,0
19.02.2018 05:00:00 -8,0 -9,1 6 4 13 7 ONO 1027,2 - 0,0
19.02.2018 04:00:00 -7,4 -8,3 7 4 11 6 ONO 1026,8 8 0,0
19.02.2018 03:00:00 -7,1 -8,2 6 3 10 6 ONO 1026,6 11 0,0
19.02.2018 02:00:00 -6,6 -7,7 5 3 12 7 O 1026,1 14 0,0
19.02.2018 01:00:00 -6,2 -7,0 8 4 12 7 ONO 1025,5 - 0,0
19.02.2018 00:00:00 -6,2 -6,9 5 3 10 5 NO 1025,3 - 0,0

tt = temperatuur
td = dauwpunt
ff = windsnelheid
fx = windstoten
dd = windrichting
ppp = luchtdruk
vv = zicht
rr = neerslag

Weerstations in de omgeving